Location: Basses Si�yes
(44.0835°N, 6.2037°E)
Time: 19:41:51
(UTC+00:00)

Cosmos 2150 Rocket - Pass Details

Date: 27 February 2020
Orbit: 748 x 808 km, 74.0° (Epoch: 29 March)

Event Time Altitude Azimuth Distance (km) Brightness Sun altitude
Rises 19:20:14 0° 342° (NNW) 3,305 7.7 -22.3°
Reaches altitude 10° 19:22:40 10° 346° (NNW) 2,379 6.8 -22.7°
Maximum altitude 19:28:02 61° 66° (ENE) 911 4.1 -23.7°
Enters shadow 19:28:23 60° 85° (E) 922 4.0 -23.7°
